This is the latest recevied weather packets stored in our database for station/object WX4LTG. If no packets are shown the sender has not sent any weather packets the latest 10 day(s).
| Time | Temp. | Humidity | Pressure | Rain* | Wind** | Luminosity | Snow |
|---|---|---|---|---|---|---|---|
| 1777325056 | 26.11° C | 19% | 1012.2 hPa | 0 mm | - | 648 W/m² | - |
| 1777324752 | 26.11° C | 18% | 1012.3 hPa | 0 mm | - | 656 W/m² | - |
| 1777324450 | 26.11° C | 19% | 1012 hPa | 0 mm | - | 661 W/m² | - |
| 1777324147 | 25.56° C | 18% | 1012.1 hPa | 0 mm | - | 674 W/m² | - |
| 1777323846 | 26.11° C | 18% | 1012.3 hPa | 0 mm | - | 681 W/m² | - |
| 1777323542 | 26.11° C | 18% | 1012.2 hPa | 0 mm | - | 689 W/m² | - |
| 1777323239 | 26.11° C | 18% | 1012.3 hPa | 0 mm | - | 694 W/m² | - |
| 1777322936 | 25.56° C | 18% | 1012.3 hPa | 0 mm | - | 700 W/m² | - |
| 1777322635 | 25.56° C | 18% | 1012.3 hPa | 0 mm | - | 707 W/m² | - |
| 1777322332 | 25.56° C | 19% | 1012.5 hPa | 0 mm | - | 711 W/m² | - |
| 1777322029 | 26.11° C | 18% | 1012.7 hPa | 0 mm | - | 715 W/m² | - |
| 1777321725 | 26.11° C | 18% | 1012.6 hPa | 0 mm | - | 720 W/m² | - |
| 1777321422 | 25.56° C | 19% | 1012.7 hPa | 0 mm | - | 725 W/m² | - |
| 1777321119 | 25.56° C | 19% | 1012.9 hPa | 0 mm | - | 727 W/m² | - |
| 1777320817 | 25.56° C | 20% | 1013 hPa | 0 mm | - | 734 W/m² | - |
| 1777320513 | 25.56° C | 19% | 1013.1 hPa | 0 mm | - | 734 W/m² | - |
| 1777320211 | 26.11° C | 20% | 1013 hPa | 0 mm | - | 736 W/m² | - |
| 1777319907 | 25.56° C | 20% | 1013.3 hPa | 0 mm | - | 741 W/m² | - |
| 1777319605 | 25° C | 20% | 1013.2 hPa | 0 mm | - | 741 W/m² | - |
| 1777319302 | 25° C | 20% | 1013.4 hPa | 0 mm | - | 743 W/m² | - |
| 1777318999 | 24.44° C | 21% | 1013.4 hPa | 0 mm | - | 744 W/m² | - |
| 1777318695 | 25.56° C | 20% | 1013.5 hPa | 0 mm | - | 744 W/m² | - |
| 1777318391 | 25° C | 22% | 1013.3 hPa | 0 mm | - | 744 W/m² | - |
| 1777318088 | 24.44° C | 22% | 1013.8 hPa | 0 mm | - | 745 W/m² | - |
| 1777317785 | 25° C | 21% | 1013.4 hPa | 0 mm | - | 744 W/m² | - |
* Rain latest hour (hover to see other rain measurements)
** Current wind speed in m/s (hover to see current wind gust speed)